Time,TemperatureF,DewpointF,PressureIn,WindDirection,WindDirectionDegrees,WindSpeedMPH,WindSpeedGustMPH,Humidity,HourlyPrecipIn,Conditions,Clouds,dailyrainin,SolarRadiationWatts/m^2,SoftwareType,DateUTC
2013-03-16 00:02:00,44.0,38.0,-100.00,WSW,248,3.0,5.0,79,0.00,,,0.00,1.000000,,2013-03-16 07:02:00,
2013-03-16 00:32:00,43.0,36.0,-100.00,SW,223,5.0,7.0,76,0.00,,,0.00,1.000000,,2013-03-16 07:32:00,
2013-03-16 00:42:00,43.0,36.0,-100.00,SW,223,5.0,7.0,76,0.00,,,0.00,1.000000,,2013-03-16 07:42:00,
2013-03-16 00:52:00,43.0,36.0,-100.00,SW,223,5.0,7.0,76,0.00,,,0.00,1.000000,,2013-03-16 07:52:00,
2013-03-16 01:02:00,43.0,36.0,-100.00,SW,223,5.0,7.0,76,0.00,,,0.00,1.000000,,2013-03-16 08:02:00,
2013-03-16 01:33:00,40.0,35.0,-100.00,SW,236,3.0,5.0,83,0.00,,,0.00,1.000000,,2013-03-16 08:33:00,
2013-03-16 01:42:00,40.0,35.0,-100.00,SW,236,3.0,5.0,83,0.00,,,0.00,1.000000,,2013-03-16 08:42:00,
2013-03-16 01:52:00,40.0,35.0,-100.00,SW,236,3.0,5.0,83,0.00,,,0.00,1.000000,,2013-03-16 08:52:00,
2013-03-16 02:01:00,40.0,35.0,-100.00,SW,236,3.0,5.0,83,0.00,,,0.00,1.000000,,2013-03-16 09:01:00,
2013-03-16 02:33:00,37.0,32.0,-100.00,West,260,1.0,5.0,81,0.00,,,0.00,1.000000,,2013-03-16 09:33:00,
2013-03-16 02:42:00,37.0,32.0,-100.00,West,260,1.0,5.0,81,0.00,,,0.00,1.000000,,2013-03-16 09:42:00,
2013-03-16 02:53:00,37.0,32.0,-100.00,West,260,1.0,5.0,81,0.00,,,0.00,1.000000,,2013-03-16 09:53:00,
2013-03-16 03:03:00,37.0,32.0,-100.00,West,260,1.0,5.0,81,0.00,,,0.00,1.000000,,2013-03-16 10:03:00,
2013-03-16 03:32:00,35.0,32.0,-100.00,South,185,2.0,5.0,88,0.00,,,0.00,1.000000,,2013-03-16 10:32:00,
2013-03-16 03:42:00,35.0,32.0,-100.00,South,185,2.0,5.0,88,0.00,,,0.00,1.000000,,2013-03-16 10:42:00,
2013-03-16 03:52:00,35.0,32.0,-100.00,South,185,2.0,5.0,88,0.00,,,0.00,1.000000,,2013-03-16 10:52:00,
2013-03-16 04:03:00,35.0,32.0,-100.00,South,185,2.0,5.0,88,0.00,,,0.00,1.000000,,2013-03-16 11:03:00,
2013-03-16 04:33:00,36.0,33.0,-100.00,SSE,165,1.0,6.0,88,0.00,,,0.00,1.000000,,2013-03-16 11:33:00,
2013-03-16 04:43:00,36.0,33.0,-100.00,SSE,165,1.0,6.0,88,0.00,,,0.00,1.000000,,2013-03-16 11:43:00,
2013-03-16 04:52:00,36.0,33.0,-100.00,SSE,165,1.0,6.0,88,0.00,,,0.00,1.000000,,2013-03-16 11:52:00,
2013-03-16 05:01:00,36.0,33.0,-100.00,SSE,165,1.0,6.0,88,0.00,,,0.00,1.000000,,2013-03-16 12:01:00,
2013-03-16 05:32:00,35.0,32.0,-100.00,NE,54,2.0,5.0,88,0.00,,,0.00,1.000000,,2013-03-16 12:32:00,
2013-03-16 05:43:00,35.0,32.0,-100.00,NE,54,2.0,5.0,88,0.00,,,0.00,1.000000,,2013-03-16 12:43:00,
2013-03-16 05:52:00,35.0,32.0,-100.00,NE,54,2.0,5.0,88,0.00,,,0.00,1.000000,,2013-03-16 12:52:00,
2013-03-16 06:02:00,35.0,32.0,-100.00,NE,54,2.0,5.0,88,0.00,,,0.00,1.000000,,2013-03-16 13:02:00,
2013-03-16 06:32:00,35.0,33.0,-100.00,SE,144,1.0,5.0,91,0.00,,,0.00,1.000000,,2013-03-16 13:32:00,
2013-03-16 06:42:00,35.0,33.0,-100.00,SE,144,1.0,5.0,91,0.00,,,0.00,1.000000,,2013-03-16 13:42:00,
2013-03-16 06:53:00,35.0,33.0,-100.00,SE,144,1.0,5.0,91,0.00,,,0.00,1.000000,,2013-03-16 13:53:00,
2013-03-16 07:02:00,35.0,33.0,-100.00,SE,144,1.0,5.0,91,0.00,,,0.00,1.000000,,2013-03-16 14:02:00,
2013-03-16 07:32:00,33.0,31.0,-100.00,SSW,213,3.0,5.0,93,0.00,,,0.00,1.000000,,2013-03-16 14:32:00,
2013-03-16 07:42:00,33.0,31.0,-100.00,SSW,213,3.0,5.0,93,0.00,,,0.00,1.000000,,2013-03-16 14:42:00,
2013-03-16 07:52:00,33.0,31.0,-100.00,SSW,213,3.0,5.0,93,0.00,,,0.00,1.000000,,2013-03-16 14:52:00,
2013-03-16 08:02:00,33.0,31.0,-100.00,SSW,213,3.0,5.0,93,0.00,,,0.00,1.000000,,2013-03-16 15:02:00,
2013-03-16 08:33:00,34.0,32.0,-100.00,WSW,238,2.0,4.0,93,0.00,,,0.00,27.000000,,2013-03-16 15:33:00,
2013-03-16 08:43:00,34.0,32.0,-100.00,WSW,238,2.0,4.0,93,0.00,,,0.00,27.000000,,2013-03-16 15:43:00,
2013-03-16 08:53:00,34.0,32.0,-100.00,WSW,238,2.0,4.0,93,0.00,,,0.00,27.000000,,2013-03-16 15:53:00,
2013-03-16 09:02:00,34.0,32.0,-100.00,WSW,238,2.0,4.0,93,0.00,,,0.00,27.000000,,2013-03-16 16:02:00,
2013-03-16 09:33:00,42.0,37.0,-100.00,ESE,102,2.0,4.0,83,0.00,,,0.00,188.000000,,2013-03-16 16:33:00,
2013-03-16 09:43:00,42.0,37.0,-100.00,ESE,102,2.0,4.0,83,0.00,,,0.00,188.000000,,2013-03-16 16:43:00,
2013-03-16 09:53:00,42.0,37.0,-100.00,ESE,102,2.0,4.0,83,0.00,,,0.00,188.000000,,2013-03-16 16:53:00,
2013-03-16 10:02:00,42.0,37.0,-100.00,ESE,102,2.0,4.0,83,0.00,,,0.00,188.000000,,2013-03-16 17:02:00,
2013-03-16 10:33:00,49.0,40.0,-100.00,East,83,2.0,5.0,71,0.00,,,0.00,313.000000,,2013-03-16 17:33:00,
2013-03-16 10:43:00,49.0,40.0,-100.00,East,83,2.0,5.0,71,0.00,,,0.00,313.000000,,2013-03-16 17:43:00,
2013-03-16 10:53:00,49.0,40.0,-100.00,East,83,2.0,5.0,71,0.00,,,0.00,313.000000,,2013-03-16 17:53:00,
2013-03-16 11:02:00,49.0,40.0,-100.00,East,83,2.0,5.0,71,0.00,,,0.00,313.000000,,2013-03-16 18:02:00,
2013-03-16 11:33:00,54.0,38.0,-100.00,East,86,4.0,8.0,54,0.00,,,0.00,468.000000,,2013-03-16 18:33:00,
2013-03-16 11:43:00,54.0,38.0,-100.00,East,86,4.0,8.0,54,0.00,,,0.00,468.000000,,2013-03-16 18:43:00,
2013-03-16 11:53:00,54.0,38.0,-100.00,East,86,4.0,8.0,54,0.00,,,0.00,468.000000,,2013-03-16 18:53:00,
2013-03-16 12:02:00,54.0,38.0,-100.00,East,86,4.0,8.0,54,0.00,,,0.00,468.000000,,2013-03-16 19:02:00,
2013-03-16 12:33:00,56.0,33.0,-100.00,WSW,248,4.0,8.0,41,0.00,,,0.00,446.000000,,2013-03-16 19:33:00,
2013-03-16 12:42:00,56.0,33.0,-100.00,WSW,248,4.0,8.0,41,0.00,,,0.00,446.000000,,2013-03-16 19:42:00,
2013-03-16 12:52:00,56.0,33.0,-100.00,WSW,248,4.0,8.0,41,0.00,,,0.00,446.000000,,2013-03-16 19:52:00,
2013-03-16 13:02:00,56.0,33.0,-100.00,WSW,248,4.0,8.0,41,0.00,,,0.00,446.000000,,2013-03-16 20:02:00,
2013-03-16 13:33:00,56.0,30.0,-100.00,South,175,4.0,10.0,37,0.00,,,0.00,456.000000,,2013-03-16 20:33:00,
2013-03-16 13:42:00,56.0,30.0,-100.00,South,175,4.0,10.0,37,0.00,,,0.00,456.000000,,2013-03-16 20:42:00,
2013-03-16 13:52:00,56.0,30.0,-100.00,South,175,4.0,10.0,37,0.00,,,0.00,456.000000,,2013-03-16 20:52:00,
2013-03-16 14:02:00,56.0,30.0,-100.00,South,175,4.0,10.0,37,0.00,,,0.00,456.000000,,2013-03-16 21:02:00,
2013-03-16 14:33:00,54.0,30.0,-100.00,West,264,9.0,19.0,39,0.00,,,0.00,116.000000,,2013-03-16 21:33:00,
2013-03-16 14:43:00,54.0,30.0,-100.00,West,264,9.0,19.0,39,0.00,,,0.00,116.000000,,2013-03-16 21:43:00,
2013-03-16 14:52:00,54.0,30.0,-100.00,West,264,9.0,19.0,39,0.00,,,0.00,116.000000,,2013-03-16 21:52:00,
2013-03-16 15:03:00,54.0,30.0,-100.00,West,264,9.0,19.0,39,0.00,,,0.00,116.000000,,2013-03-16 22:03:00,
2013-03-16 15:33:00,53.0,29.0,-100.00,SW,225,13.0,23.0,40,0.00,,,0.00,228.000000,,2013-03-16 22:33:00,
2013-03-16 15:42:00,53.0,29.0,-100.00,SW,225,13.0,23.0,40,0.00,,,0.00,228.000000,,2013-03-16 22:42:00,
2013-03-16 15:52:00,53.0,29.0,-100.00,SW,225,13.0,23.0,40,0.00,,,0.00,228.000000,,2013-03-16 22:52:00,
2013-03-16 16:02:00,53.0,29.0,-100.00,SW,225,13.0,23.0,40,0.00,,,0.00,228.000000,,2013-03-16 23:02:00,
2013-03-16 16:33:00,54.0,31.0,-100.00,SW,214,18.0,28.0,41,0.00,,,0.00,404.000000,,2013-03-16 23:33:00,
2013-03-16 16:42:00,54.0,31.0,-100.00,SW,214,18.0,28.0,41,0.00,,,0.00,404.000000,,2013-03-16 23:42:00,
2013-03-16 16:52:00,54.0,31.0,-100.00,SW,214,18.0,28.0,41,0.00,,,0.00,404.000000,,2013-03-16 23:52:00,
2013-03-16 17:01:00,54.0,31.0,-100.00,SW,214,18.0,28.0,41,0.00,,,0.00,404.000000,,2013-03-17 00:01:00,
2013-03-16 17:33:00,52.0,30.0,-100.00,SSW,204,14.0,27.0,42,0.00,,,0.00,327.000000,,2013-03-17 00:33:00,
2013-03-16 17:42:00,52.0,30.0,-100.00,SSW,204,14.0,27.0,42,0.00,,,0.00,327.000000,,2013-03-17 00:42:00,
2013-03-16 17:52:00,52.0,30.0,-100.00,SSW,204,14.0,27.0,42,0.00,,,0.00,327.000000,,2013-03-17 00:52:00,
2013-03-16 18:02:00,52.0,30.0,-100.00,SSW,204,14.0,27.0,42,0.00,,,0.00,327.000000,,2013-03-17 01:02:00,
2013-03-16 18:33:00,53.0,29.0,-100.00,SW,224,15.0,27.0,39,0.00,,,0.00,212.000000,,2013-03-17 01:33:00,
2013-03-16 18:42:00,53.0,29.0,-100.00,SW,224,15.0,27.0,39,0.00,,,0.00,212.000000,,2013-03-17 01:42:00,
2013-03-16 18:53:00,53.0,29.0,-100.00,SW,224,15.0,27.0,39,0.00,,,0.00,212.000000,,2013-03-17 01:53:00,
2013-03-16 19:02:00,53.0,29.0,-100.00,SW,224,15.0,27.0,39,0.00,,,0.00,212.000000,,2013-03-17 02:02:00,
2013-03-16 19:33:00,47.0,29.0,-100.00,SW,226,12.0,34.0,50,0.00,,,0.00,58.000000,,2013-03-17 02:33:00,
2013-03-16 19:43:00,47.0,29.0,-100.00,SW,226,12.0,34.0,50,0.00,,,0.00,58.000000,,2013-03-17 02:43:00,
2013-03-16 19:52:00,47.0,29.0,-100.00,SW,226,12.0,34.0,50,0.00,,,0.00,58.000000,,2013-03-17 02:52:00,
2013-03-16 20:02:00,47.0,29.0,-100.00,SW,226,12.0,34.0,50,0.00,,,0.00,58.000000,,2013-03-17 03:02:00,
2013-03-16 20:34:00,38.0,33.0,-100.00,West,266,5.0,24.0,81,0.05,,,-99.99,1.000000,,2013-03-17 03:34:00,
2013-03-16 20:43:00,38.0,33.0,-100.00,West,266,5.0,24.0,81,0.05,,,-99.99,1.000000,,2013-03-17 03:43:00,
2013-03-16 20:53:00,38.0,33.0,-100.00,West,266,5.0,24.0,81,0.05,,,-99.99,1.000000,,2013-03-17 03:53:00,
2013-03-16 21:02:00,38.0,33.0,-100.00,West,266,5.0,24.0,81,0.05,,,-99.99,1.000000,,2013-03-17 04:02:00,
2013-03-16 21:33:00,39.0,32.0,-100.00,SW,225,5.0,11.0,76,0.00,,,0.05,1.000000,,2013-03-17 04:33:00,
2013-03-16 21:43:00,39.0,32.0,-100.00,SW,225,5.0,11.0,76,0.00,,,0.05,1.000000,,2013-03-17 04:43:00,
2013-03-16 21:53:00,39.0,32.0,-100.00,SW,225,5.0,11.0,76,0.00,,,0.05,1.000000,,2013-03-17 04:53:00,
2013-03-16 22:02:00,39.0,32.0,-100.00,SW,225,5.0,11.0,76,0.00,,,0.05,1.000000,,2013-03-17 05:02:00,
2013-03-16 22:32:00,38.0,29.0,-100.00,West,267,3.0,14.0,71,0.00,,,0.05,1.000000,,2013-03-17 05:32:00,
2013-03-16 22:42:00,38.0,29.0,-100.00,West,267,3.0,14.0,71,0.00,,,0.05,1.000000,,2013-03-17 05:42:00,
2013-03-16 22:52:00,38.0,29.0,-100.00,West,267,3.0,14.0,71,0.00,,,0.05,1.000000,,2013-03-17 05:52:00,
2013-03-16 23:02:00,38.0,29.0,-100.00,West,267,3.0,14.0,71,0.00,,,0.05,1.000000,,2013-03-17 06:02:00,
2013-03-16 23:32:00,36.0,30.0,-100.00,NW,315,3.0,6.0,78,0.00,,,0.05,1.000000,,2013-03-17 06:32:00,
2013-03-16 23:42:00,36.0,30.0,-100.00,NW,315,3.0,6.0,78,0.00,,,0.05,1.000000,,2013-03-17 06:42:00,
2013-03-16 23:52:00,36.0,30.0,-100.00,NW,315,3.0,6.0,78,0.00,,,0.05,1.000000,,2013-03-17 06:52:00,